[[{"header":{"parameterUnit":"m.s-1","parameterCategory":1,"la1":30.2991,"la2":30.254,"lo1":-89.0895,"lo2":-89.0444,"dy":0.0017,"dx":0.0017,"nx":28,"ny":28,"refTime":"2025-11-05T09:00:00:Z","depth":0,"parameterNumber":2,"parameterNumberName":"U-component_of_WINDS"},"data":[0,0,0,0,0,0,0,0,0,0,0,0,0,0,0,0,0,0,0,0,0,0,0,0,0,0,0,0,0,0,0,0,0,0,0,0,0,0,0,0,0,0,0,0,0,0,0,0,0,0,0,0,0,0,0,0,0,0,-2.2394,-2.2396,0,-2.256,-2.2561,-2.2563,-2.2655,-2.2655,-2.2655,-2.2655,-2.2826,-2.283,-2.2834,0,0,0,0,0,0,0,0,0,0,0,0,0,-2.2158,-2.2162,-2.2394,-2.2396,-2.2398,-2.2559,-2.2562,-2.2564,-2.2654,-2.2655,-2.2655,-2.2655,-2.2824,-2.2829,-2.2835,0,0,0,0,0,0,0,0,0,0,0,0,0,-2.2286,-2.2163,-2.2394,-2.2463,-2.2471,-2.2559,-2.2562,-2.2564,-2.2654,-2.2655,-2.2655,-2.2656,-2.2823,-2.2829,-2.2835,-2.2868,0,0,-2.2855,-2.2858,0,0,0,0,0,0,0,0,-2.2278,-2.2294,-2.2451,-2.2458,-2.2467,-2.2587,-2.2541,-2.2666,-2.2654,-2.2585,-2.2655,-2.2656,-2.2746,-2.2759,-2.2789,-2.2876,-2.2883,-2.2856,-2.2859,-2.2862,-2.2864,0,0,0,0,0,0,0,-2.2269,-2.2288,-2.246,-2.2453,-2.2463,-2.2486,-2.2505,-2.2565,-2.2661,-2.2591,-2.2598,-2.2616,-2.2751,-2.2783,-2.2794,-2.2885,-2.2855,-2.2861,-2.2865,-2.2868,-2.3007,-2.3007,0,0,0,0,0,0,-2.2249,-2.228,-2.2454,-2.2465,-2.2372,-2.249,-2.2511,-2.2548,-2.2661,-2.2678,-2.2616,-2.262,-2.2771,-2.2786,-2.28,-2.2845,-2.2862,-2.2868,-2.2872,-2.3007,-2.3007,-2.3007,0,0,0,0,0,0,-2.2244,-2.2264,-2.2448,-2.2374,-2.2399,-2.2494,-2.2535,-2.2551,-2.2583,-2.268,-2.2697,-2.263,-2.2772,-2.2791,-2.285,-2.2852,-2.2871,-2.2877,-2.3007,-2.3007,-2.3007,-2.2936,0,0,0,0,0,0,-2.2237,-2.2262,-2.2275,-2.2374,-2.2403,-2.2494,-2.2535,-2.2554,-2.2594,-2.2601,-2.2698,-2.2715,-2.2774,-2.284,-2.2856,-2.2862,-2.2882,-2.3008,-2.3007,-2.3007,-2.2938,-2.2933,-2.2929,0,0,0,0,0,-2.2228,-2.2248,-2.2275,-2.2295,-2.2421,-2.2494,-2.2511,-2.2578,-2.2594,-2.2608,-2.267,-2.2712,-2.2849,-2.2845,-2.2865,-2.2872,-2.3008,-2.3007,-2.3007,-2.294,-2.2934,-2.2929,0,0,0,0,0,0,-2.2148,-2.2263,-2.2293,-2.2346,-2.241,-2.251,-2.2529,-2.257,-2.2631,-2.2635,-2.2716,-2.2737,-2.2788,-2.2836,-2.283,-2.2909,-2.2933,-2.2937,-2.2876,-2.2871,-2.2866,-2.2853,-2.2887,0,0,0,0,0,-2.2136,-2.2185,-2.2283,-2.2321,-2.2351,-2.2434,-2.2469,-2.2515,-2.2585,-2.2612,-2.2678,-2.2744,-2.2803,-2.2839,-2.2898,-2.2946,-2.2968,-2.296,-2.2955,-2.2951,-2.2953,-2.2981,-2.2979,-2.3005,-2.3005,-2.3005,0,0,-2.2113,-2.2181,-2.2208,-2.2306,-2.2361,-2.2411,-2.2456,-2.2507,-2.2545,-2.262,-2.268,-2.273,-2.281,-2.2863,-2.289,-2.2904,-2.295,-2.295,-2.2946,-2.2951,-2.2981,-2.2978,-2.2976,-2.3005,-2.3005,-2.3005,0,0,-2.2095,-2.2152,-2.2189,-2.2243,-2.2325,-2.238,-2.2389,-2.2483,-2.2519,-2.258,-2.2638,-2.2684,-2.2783,-2.2837,-2.2877,-2.2879,-2.292,-2.2896,-2.2871,-2.2898,-2.2895,-2.2894,-2.2895,-2.2894,-2.2898,-2.2898,-2.2898,0,-2.2056,-2.2133,-2.2204,-2.2251,-2.2292,-2.2362,-2.24,-2.2449,-2.2546,-2.2573,-2.2588,-2.2713,-2.2772,-2.2838,-2.2838,-2.2869,-2.2882,-2.2885,-2.289,-2.2889,-2.2889,-2.289,-2.289,-2.2894,-2.2895,-2.2895,-2.2895,0,-2.208,-2.2132,-2.2153,-2.2244,-2.2288,-2.233,-2.2408,-2.2444,-2.2486,-2.2539,-2.2601,-2.2673,-2.2748,-2.2767,-2.2809,-2.284,-2.2846,-2.2874,-2.29,-2.2882,-2.2884,-2.2886,-2.2889,-2.2891,-2.2892,-2.2893,0,0,-2.2017,-2.2146,-2.2153,-2.2195,-2.229,-2.2332,-2.2377,-2.245,-2.2479,-2.2544,-2.2584,-2.2666,-2.2692,-2.2738,-2.2787,-2.281,-2.2807,-2.2836,-2.2839,-2.2828,-2.2845,-2.2822,-2.2822,-2.2835,-2.2835,-2.2836,-2.2838,0,-2.2014,-2.2098,-2.2163,-2.2223,-2.2272,-2.2338,-2.2378,-2.2441,-2.2492,-2.2542,-2.2599,-2.2655,-2.2686,-2.2714,-2.274,-2.2802,-2.2812,-2.2803,-2.2873,-2.2875,-2.2851,-2.2824,-2.2801,-2.2799,-2.284,-2.284,-2.284,0,-2.2021,-2.2082,-2.2146,-2.2235,-2.2258,-2.2293,-2.2364,-2.2411,-2.2483,-2.2519,-2.2569,-2.262,-2.2671,-2.2692,-2.2764,-2.2757,-2.279,-2.2824,-2.2826,-2.2835,-2.2856,-2.2831,-2.2801,-2.28,-2.2843,-2.2842,-2.2842,0,-2.1967,-2.2066,-2.2117,-2.2151,-2.2257,-2.2279,-2.2325,-2.2398,-2.2437,-2.25,-2.2526,-2.2594,-2.2631,-2.2682,-2.275,-2.2759,-2.2815,-2.2842,-2.2846,-2.2844,-2.2855,-2.2853,-2.2828,-2.2876,-2.2876,-2.2876,-2.2876,0,-2.1956,-2.1993,-2.2095,-2.2126,-2.2169,-2.2243,-2.2284,-2.2335,-2.24,-2.2442,-2.2505,-2.2544,-2.2631,-2.268,-2.2734,-2.2785,-2.2802,-2.2832,-2.2846,-2.2826,-2.2822,-2.2849,-2.285,-2.2876,-2.2876,-2.2876,-2.2876,0,-2.1904,-2.1974,-2.2034,-2.2129,-2.2154,-2.2181,-2.2263,-2.2296,-2.235,-2.2404,-2.2421,-2.2506,-2.2568,-2.264,-2.2726,-2.2762,-2.2809,-2.2829,-2.2784,-2.2791,-2.2792,-2.279,-2.2783,-2.2785,-2.2831,-2.2831,-2.283,0,-2.1893,-2.1922,-2.202,-2.2052,-2.2095,-2.2147,-2.2187,-2.2262,-2.2301,-2.2385,-2.2408,-2.2475,-2.2531,-2.2627,-2.2697,-2.2763,-2.2785,-2.2778,-2.2796,-2.2775,-2.2785,-2.2782,-2.2785,-2.2773,-2.2772,-2.2771,-2.2771,0,-2.1864,-2.1897,-2.1951,-2.2018,-2.2063,-2.212,-2.2179,-2.2202,-2.2289,-2.2329,-2.2393,-2.2436,-2.2523,-2.2588,-2.2663,-2.2711,-2.2755,-2.2765,-2.2769,-2.2749,-2.2722,-2.2736,-2.277,-2.2765,-2.2765,-2.2766,-2.2766,-2.2766,-2.1832,-2.1861,-2.1934,-2.1992,-2.2044,-2.2098,-2.2133,-2.2192,-2.2245,-2.2321,-2.2362,-2.2424,-2.2496,-2.2601,-2.2647,-2.2697,-2.2712,-2.2719,-2.2721,-2.2721,-2.2715,-2.2714,-2.2711,-2.2711,-2.2712,-2.2712,-2.2712,0,-2.1806,-2.1856,-2.1909,-2.1989,-2.2035,-2.2072,-2.2139,-2.2175,-2.2229,-2.2292,-2.2346,-2.2419,-2.2482,-2.2557,-2.2625,-2.2651,-2.2673,-2.2666,-2.2665,-2.2675,-2.2698,-2.2687,-2.2647,-2.2647,-2.2647,-2.2647,-2.2647,-2.2647,-2.1798,-2.1849,-2.189,-2.1967,-2.2017,-2.2078,-2.2113,-2.2162,-2.2213,-2.2291,-2.2343,-2.2391,-2.2459,-2.2533,-2.2592,-2.2613,-2.2635,-2.2622,-2.2648,-2.2668,-2.2673,-2.2679,-2.2669,-2.2626,-2.2626,-2.2622,-2.2622,-2.2622]},{"header":{"parameterUnit":"m.s-1","parameterCategory":1,"la1":30.2991,"la2":30.254,"lo1":-89.0895,"lo2":-89.0444,"dy":0.0017,"dx":0.0017,"nx":28,"ny":28,"refTime":"2025-11-05T09:00:00:Z","depth":0,"parameterNumber":3,"parameterNumberName":"V-component_of_WINDS"},"data":[0,0,0,0,0,0,0,0,0,0,0,0,0,0,0,0,0,0,0,0,0,0,0,0,0,0,0,0,0,0,0,0,0,0,0,0,0,0,0,0,0,0,0,0,0,0,0,0,0,0,0,0,0,0,0,0,0,0,4.888,4.8881,0,4.9001,4.9002,4.9004,4.9,4.8998,4.8996,4.8995,4.9113,4.9118,4.9122,0,0,0,0,0,0,0,0,0,0,0,0,0,4.8641,4.8646,4.888,4.8881,4.8883,4.9001,4.9002,4.9004,4.9,4.8998,4.8996,4.8994,4.9111,4.9117,4.9123,0,0,0,0,0,0,0,0,0,0,0,0,0,4.8752,4.8647,4.8879,4.8895,4.8898,4.9,4.9002,4.9004,4.9,4.8998,4.8996,4.8993,4.911,4.9116,4.9123,4.9216,0,0,4.9145,4.9148,0,0,0,0,0,0,0,0,4.8745,4.876,4.8891,4.8894,4.8897,4.8983,4.8962,4.9075,4.9001,4.8961,4.8995,4.8992,4.9071,4.9081,4.9109,4.9222,4.9227,4.9145,4.915,4.9153,4.9155,0,0,0,0,0,0,0,4.8738,4.8755,4.8927,4.8893,4.8897,4.8895,4.8908,4.8983,4.9028,4.8965,4.8965,4.8979,4.9072,4.9103,4.9112,4.9229,4.9145,4.9152,4.9156,4.9159,4.9427,4.943,0,0,0,0,0,0,4.8727,4.8749,4.8923,4.8931,4.8814,4.8901,4.8916,4.8958,4.9028,4.9036,4.8981,4.8979,4.9092,4.9104,4.9116,4.9232,4.9153,4.9159,4.9163,4.9424,4.9428,4.9431,0,0,0,0,0,0,4.8722,4.8743,4.8919,4.884,4.8862,4.8908,4.8955,4.8961,4.8992,4.9041,4.9048,4.9004,4.909,4.9106,4.9193,4.9236,4.9162,4.9169,4.9421,4.9425,4.9429,4.9463,0,0,0,0,0,0,4.8715,4.8741,4.8778,4.8841,4.8867,4.8994,4.8958,4.8966,4.9005,4.9002,4.9064,4.9072,4.909,4.9182,4.92,4.9244,4.9174,4.9417,4.9423,4.9428,4.9458,4.9468,4.9476,0,0,0,0,0,4.8707,4.878,4.8779,4.8801,4.8913,4.8997,4.9011,4.9032,4.9008,4.9045,4.9077,4.907,4.9228,4.9191,4.9211,4.9258,4.9414,4.9421,4.9427,4.9454,4.9466,4.9476,0,0,0,0,0,0,4.8717,4.8789,4.8789,4.8885,4.8935,4.8996,4.9043,4.9044,4.91,4.9095,4.9117,4.9131,4.9218,4.9246,4.9204,4.9353,4.9318,4.9329,4.9332,4.9343,4.9352,4.9344,4.918,0,0,0,0,0,4.8732,4.8795,4.8853,4.8932,4.8958,4.8996,4.9033,4.9046,4.9098,4.9118,4.9156,4.9206,4.9267,4.9307,4.9365,4.9462,4.9476,4.9505,4.9514,4.9521,4.953,4.9586,4.96,4.9452,4.9452,4.9452,0,0,4.876,4.8807,4.8845,4.8936,4.8976,4.9041,4.9014,4.9082,4.913,4.9128,4.9213,4.9243,4.9299,4.9393,4.9435,4.9419,4.9574,4.9529,4.9535,4.954,4.9594,4.9608,4.962,4.9457,4.9456,4.9455,0,0,4.8846,4.8887,4.8959,4.9001,4.9064,4.909,4.9107,4.9169,4.919,4.9276,4.9277,4.9333,4.9438,4.9479,4.9514,4.962,4.9616,4.9638,4.9685,4.9739,4.9751,4.9761,4.98,4.9814,4.9647,4.9647,4.9647,0,4.8872,4.8971,4.8995,4.9066,4.9106,4.911,4.9184,4.9223,4.93,4.9328,4.9309,4.9443,4.9481,4.9585,4.9612,4.9639,4.966,4.9631,4.9748,4.9758,4.9768,4.9806,4.982,4.9649,4.9649,4.9649,4.9648,0,4.9002,4.9071,4.9122,4.9201,4.9247,4.9318,4.9352,4.9396,4.9405,4.9432,4.9521,4.9568,4.9638,4.9663,4.9671,4.9769,4.9758,4.9743,4.9708,4.9784,4.982,4.9835,4.9653,4.9652,4.9651,4.965,0,0,4.9096,4.919,4.9208,4.9246,4.9317,4.937,4.9442,4.9513,4.9551,4.9605,4.9666,4.9757,4.9745,4.9784,4.9797,4.9845,4.9928,4.9825,4.9826,4.9844,5.0041,5.0053,5.0069,4.9926,4.9929,4.9931,5.0037,0,4.919,4.932,4.9346,4.9458,4.9523,4.953,4.9592,4.9643,4.9671,4.9729,4.976,4.9824,4.9803,4.9827,4.9875,4.9908,4.9968,4.9901,4.9983,4.9986,4.997,5.0088,5.0099,5.0197,5.0051,5.0054,5.0055,0,4.9316,4.9378,4.9498,4.9565,4.9592,4.9649,4.9718,4.9773,4.9831,4.9848,4.9895,4.9903,4.9978,4.9941,5.0045,4.9998,5.0034,5.0056,5.006,5.0069,5.0026,5.0101,5.0228,5.0243,5.0077,5.0075,5.0074,0,4.9375,4.9487,4.9575,4.9606,4.9685,4.9725,4.9759,4.9814,4.9857,4.9916,4.9944,5.0011,5.0047,5.0098,5.0125,5.0095,5.0228,5.0191,5.0244,5.0244,5.0272,5.027,5.0408,5.0293,5.0293,5.0293,5.0293,0,4.9477,4.9551,4.9603,4.9656,4.974,4.9768,4.9849,4.9882,4.9933,4.9993,5.0001,5.0057,5.0088,5.0149,5.0169,5.0254,5.0269,5.0286,5.029,5.0286,5.0284,5.0309,5.0304,5.0297,5.0296,5.0295,5.0294,0,4.9556,4.9593,4.969,4.9758,4.9777,4.9836,4.9893,4.9946,4.9975,5.0052,5.0071,5.0117,5.0189,5.0221,5.0308,5.0322,5.0419,5.0418,5.0401,5.0403,5.0454,5.045,5.0614,5.0638,5.0506,5.0508,5.0509,0,4.962,4.9677,4.9753,4.9796,4.9832,4.99,4.9944,4.9975,5.002,5.0093,5.0136,5.021,5.027,5.0384,5.0424,5.0492,5.0494,5.0547,5.0504,5.0498,5.0497,5.0493,5.05,5.0555,5.0556,5.0557,5.0558,0,4.9729,4.9746,4.9811,4.9884,4.9937,4.9995,5.0051,5.0085,5.0124,5.0175,5.0251,5.0298,5.039,5.0463,5.0534,5.0568,5.057,5.0572,5.0588,5.0584,5.0572,5.0581,5.0423,5.0568,5.0567,5.0566,5.0565,5.0565,4.9803,4.9856,4.9919,4.9992,5.0039,5.0092,5.0146,5.0184,5.0248,5.0328,5.0341,5.0422,5.048,5.0577,5.0614,5.0677,5.0664,5.0687,5.0693,5.0698,5.0703,5.0562,5.069,5.069,5.0689,5.0689,5.0689,0,4.9915,4.9957,5.0024,5.0105,5.0162,5.0162,5.0226,5.0273,5.0346,5.0401,5.0461,5.0549,5.0621,5.0668,5.074,5.0782,5.0785,5.08,5.0798,5.0806,5.0709,5.0689,5.0797,5.0797,5.0797,5.0797,5.0797,5.0797,4.998,5.007,5.0095,5.0209,5.0249,5.0331,5.0368,5.0417,5.0462,5.0561,5.0622,5.0653,5.0706,5.0783,5.0849,5.0861,5.0887,5.0903,5.0915,5.0824,5.0812,5.0802,5.0783,5.0909,5.0909,5.1007,5.1008,5.1008]}]]